Chicago Executive, IL

7:18 AM CDT on October 21, 2017 (GMT -0500)
Chicago Executive

Weather History for KPWK - November, 2011

Change the Weather History Date:

Saturday, November 19, 2011

  Actual Average Record
Temperature  
Mean Temperature 51 °F 39 °F  
Max Temperature 57 °F 46 °F 59 °F (2012)
Min Temperature 45 °F 31 °F 17 °F (2014)
Degree Days  
Heating Degree Days 14 27  
Month to date heating degree days 427  
Since 1 July heating degree days 948  
Cooling Degree Days 0 0  
Month to date cooling degree days 0  
Year to date cooling degree days 789  
Growing Degree Days 1 (Base 50)    
Moisture  
Dew Point 37 °F    
Average Humidity 58    
Maximum Humidity 77    
Minimum Humidity 37    
Precipitation  
Precipitation 0.00 in 0.09 in 0.29 in (2004)
Month to date precipitation 1.93  
Year to date precipitation 30.56  
Sea Level Pressure  
Sea Level Pressure 29.84 in    
Wind  
Wind Speed 14 mph (SSW)    
Max Wind Speed 21 mph    
Max Gust Speed 37 mph    
Visibility 10 miles    
Events Rain    
T = Trace of Precipitation, MM = Missing Value Source: NWS Daily Summary

Daily Weather History Graph

Daily Weather History Graph

Search for Another Location

Airport or City:

Trip Planner

Search our weather history database for the weather conditions in past years. The results will help you decide how hot, cold, wet, or windy it might be!

Date:

Astronomy

Nov. 19, 2011 Rise Set
Actual Time 6:46 AM CST 4:27 PM CST
Civil Twilight 6:15 AM CST 4:57 PM CST
Nautical Twilight 5:41 AM CST 5:31 PM CST
Astronomical Twilight 5:08 AM CST 6:04 PM CST
Moon 12:00 AM CST (11/19) 12:50 PM CST (11/19)
Length of Visible Light 10h 41m
Length of Day
9h 40m
Last Quarter, 38% of the Moon is Illuminated
Nov 19
Last Quarter
Nov 25
New
Dec 2
First Quarter
Dec 10
Full
Dec 17
Last Quarter

Hourly Weather History & Observations

Time (CST) Temp. Windchill Dew Point Humidity Pressure Visibility Wind Dir Wind Speed Gust Speed Precip Events Conditions
12:52 AM 45.0 °F 38.2 °F 21.0 °F 39% 29.94 in 10.0 mi SSW 15.0 mph - N/A   Partly Cloudy
1:52 AM 46.9 °F - 21.9 °F 37% 29.93 in 10.0 mi SSW 13.8 mph 21.9 mph N/A   Overcast
2:52 AM 48.0 °F - 23.0 °F 37% 29.92 in 10.0 mi SSW 16.1 mph - N/A   Overcast
3:52 AM 46.9 °F - 23.0 °F 39% 29.91 in 10.0 mi SSW 12.7 mph - N/A   Clear
5:52 AM 45.0 °F 40.1 °F 25.0 °F 46% 29.91 in 10.0 mi South 9.2 mph - N/A   Mostly Cloudy
6:52 AM 45.0 °F 40.1 °F 27.0 °F 49% 29.91 in 10.0 mi South 9.2 mph - N/A   Overcast
7:52 AM 46.0 °F 40.6 °F 28.9 °F 51% 29.92 in 10.0 mi South 11.5 mph - N/A   Overcast
8:52 AM 46.9 °F - 28.9 °F 50% 29.92 in 10.0 mi South 10.4 mph - N/A   Overcast
9:52 AM 46.9 °F - 33.1 °F 59% 29.91 in 10.0 mi South 11.5 mph - 0.00 in Rain Light Rain
10:52 AM 48.9 °F - 34.0 °F 56% 29.86 in 10.0 mi South 16.1 mph - 0.00 in   Overcast
11:52 AM 52.0 °F - 35.1 °F 53% 29.79 in 10.0 mi South 18.4 mph 26.5 mph N/A   Overcast
12:52 PM 54.0 °F - 37.9 °F 55% 29.78 in 10.0 mi South 15.0 mph 26.5 mph N/A   Overcast
1:40 PM 53.6 °F - 39.2 °F 58% 29.76 in 10.0 mi South 15.0 mph 36.8 mph N/A   Overcast
1:52 PM 53.1 °F - 39.9 °F 61% 29.78 in 10.0 mi SSW 17.3 mph 23.0 mph N/A   Overcast
3:52 PM 54.0 °F - 43.0 °F 66% 29.75 in 10.0 mi South 19.6 mph 25.3 mph N/A   Overcast
4:52 PM 55.0 °F - 44.1 °F 67% 29.74 in 10.0 mi South 18.4 mph 24.2 mph N/A   Overcast
5:52 PM 55.9 °F - 45.0 °F 67% 29.75 in 10.0 mi SSW 20.7 mph 28.8 mph N/A   Overcast
6:52 PM 57.0 °F - 46.9 °F 69% 29.74 in 10.0 mi SSW 19.6 mph 32.2 mph N/A   Overcast
7:52 PM 57.0 °F - 48.9 °F 74% 29.76 in 10.0 mi SSW 11.5 mph 24.2 mph 0.00 in   Overcast
8:52 PM 57.0 °F - 48.9 °F 74% 29.77 in 10.0 mi SSW 17.3 mph 25.3 mph 0.00 in   Scattered Clouds
9:52 PM 57.0 °F - 50.0 °F 77% 29.80 in 10.0 mi SW 17.3 mph 24.2 mph N/A   Mostly Cloudy
10:52 PM 57.0 °F - 50.0 °F 77% 29.82 in 10.0 mi SW 13.8 mph - N/A   Partly Cloudy
11:52 PM 55.9 °F - 48.9 °F 77% 29.86 in 10.0 mi West 11.5 mph 19.6 mph N/A   Mostly Cloudy